Weather in Bykovsky

Russia / Sakha (Yakutia) Republic     72°00′16″N   129°06′34″E
temp.,
°C
wind,
m/s
gust,
m/s
humid.,
%
clouds,
%
prec.,
mm/h
press.,
hPa
HPBL,
m
26 february, fri
fri2600:00−29wsw1183100 0.0 1033120
03:00−28wsw1181100 0.0 1033150
06:00−28wnw0082100 0.0 1033123
09:00−28sw1185100 0.0 103361
12:00−28ssw118493 0.0 1034111
15:00−31w118655 0.0 103319
18:00−32wnw11880 0.0 103419
21:00−33wnw00870 0.0 103419
27 february, sat
sat2700:00−33ene008928 0.0 103319
03:00−33sse119451 0.0 103319
06:00−31se1195100 0.0 103319
09:00−30se2296100 0.0 103285
12:00−29se2393100 0.0 1032174
15:00−28se2292100 0.0 1031232
18:00−29ese2397100 0.0 1031126
21:00−28ese2397100 0.0 1031125
28 february, sun
sun2800:00−31sse1210099 0.0 103019
03:00−33ese1110096 0.0 102919
06:00−33e1110094 0.0 102919
09:00−34ese1110047 0.0 102819
12:00−33e12972 0.0 102719
15:00−33ene12962 0.0 102719
18:00−35ne111006 0.0 102819
21:00−35nne129925 0.0 102719
1 march, mon
mon100:00−35nne229822 0.0 102719
03:00−34n229840 0.0 102719
06:00−34n2399100 0.0 102719
09:00−34n2299100 0.1 102619
12:00−33nne2297100 0.0 102662
15:00−34ne119797 0.0 102619
18:00−36e1110084 0.0 102619
21:00−36se119879 0.0 102719
2 march, tue
tue200:00−36s019881 0.0 102719
03:00−37wnw009786 0.0 102719
06:00−37nw019689 0.0 102819
09:00−37nnw019578 0.0 102819
12:00−35ene009274 0.0 102819
15:00−35e119250 0.0 102919
18:00−36ese119671 0.0 103019
21:00−37se119769 0.0 103019